MET'MAP v2.0
soon released !

Expected late october,
this new version will be
more efficient, smarter,
and hosted on a brand new
server x3 powerfull...
...and still free !


Not compatible ?
Try the mobile version !

LOG IN : | Subscribe | Disclaimer | Who is Orbifly ? |
ICAO code :

TAF - LFYR Romorantin Pruniers - 24 Feb 2020 13:25 UTC
Data Sources :     NOAA   


- Airport Elevation : 289 ft
- No reported NOTAMs.


LFYR - Romorantin Pruniers

Latest METAR recorded : 2020/02/24 12:00 LFYR 241200Z AUTO 22009KT 180V260 9999 BKN008 OVC012 10/09 Q1023 BECMG 24015G25KT BKN020
NO TAF


MET'MAP, your aeronautical weather chart ! - Copyright ORBIFLY December 2007

Programming & Development : Alexandra Zaïnal
Co-Developer : Marc-Olivier Méhu
Technical & hardware support : Manuel Goepfert
Concept & Financing : Baudouin d'Aumeries